Location: Krakow
(50.0830°N, 19.9170°E)
Time: 18:05:59
(UTC+01:00)

Tiros 1 - Pass Details

Date: 02 February 2023
Orbit: 628 x 662 km, 48.4° (Epoch: 20 March)

Event Time Altitude Azimuth Distance (km) Brightness Sun altitude
Exits shadow 06:19:54 10° 268° (W) 2,039 9.1 -8.8°
Reaches altitude 10° 06:19:54 10° 268° (W) 2,037 9.1 -8.8°
Maximum altitude 06:23:44 25° 214° (SSW) 1,301 8.6 -8.2°
Drops below altitude 10° 06:27:34 10° 159° (SSE) 2,048 10.3 -7.6°
Sets 06:30:14 0° 146° (SSE) 2,961 11.5 -7.2°
